Weather History for PARC - May, 2013

Change the Weather History Date:

Monday, May 27, 2013

  Actual Average Record
Temperature  
Mean Temperature 52 °F -  
Max Temperature 66 °F 57 °F 71 °F (2011)
Min Temperature 37 °F 35 °F 28 °F (2002)
Degree Days  
Heating Degree Days 14    
Growing Degree Days 2 (Base 50)    
Moisture  
Dew Point 31 °F    
Average Humidity 46    
Maximum Humidity 75    
Minimum Humidity 26    
Precipitation  
Precipitation 0.00 in - - ()
Sea Level Pressure  
Sea Level Pressure 29.94 in    
Wind  
Wind Speed 3 mph (NE)    
Max Wind Speed 9 mph    
Max Gust Speed -    
Visibility 10 miles    
Events      
Averages and records for this station are not official NWS values.
T = Trace of Precipitation, MM = Missing Value Source: NWS Daily Summary

Daily Weather History Graph

Daily Weather History Graph

Search for Another Location

Airport or City:

Trip Planner

Search our weather history database for the weather conditions in past years. The results will help you decide how hot, cold, wet, or windy it might be!

Date:

Astronomy

May. 27, 2013 Rise Set
Actual Time 2:11 AM AKDT 1:07 AM AKDT
Civil Twilight Sun does not rise Sun does not rise
Nautical Twilight Sun does not rise Sun does not rise
Astronomical Twilight Sun does not rise Sun does not rise
Moon 1:57 AM AKDT (5/27) 6:09 AM AKDT (5/27)
Length of Visible Light 24h 00m
Length of Day
22h 55m
Waning Gibbous, 90% of the Moon is Illuminated
May 27
Waning Gibbous
May 31
Last Quarter
Jun 8
New
Jun 16
First Quarter
Jun 23
Full

Hourly Weather History & Observations

Time (AKDT) Temp. Windchill Dew Point Humidity Pressure Visibility Wind Dir Wind Speed Gust Speed Precip Events Conditions
12:16 AM 46.4 °F - 30.2 °F 53% 29.93 in 10.0 mi Calm Calm - N/A   Clear
12:36 AM 44.6 °F 43.1 °F 30.2 °F 57% 29.93 in 10.0 mi ESE 3.5 mph - N/A   Clear
12:56 AM 44.6 °F 42.2 °F 30.2 °F 57% 29.94 in 10.0 mi NE 4.6 mph - N/A   Clear
1:16 AM 42.8 °F - 30.2 °F 61% 29.94 in 10.0 mi Calm Calm - N/A   Clear
1:36 AM 42.8 °F 41.1 °F 30.2 °F 61% 29.94 in 10.0 mi NNE 3.5 mph - N/A   Clear
1:56 AM 37.4 °F 34.9 °F 28.4 °F 70% 29.95 in 10.0 mi NE 3.5 mph - N/A   Clear
2:16 AM 39.2 °F 35.9 °F 30.2 °F 70% 29.95 in 10.0 mi East 4.6 mph - N/A   Clear
2:36 AM 39.2 °F 35.9 °F 30.2 °F 70% 29.95 in 10.0 mi NE 4.6 mph - N/A   Clear
2:56 AM 39.2 °F - 28.4 °F 65% 29.95 in 10.0 mi Calm Calm - N/A   Clear
3:16 AM 39.2 °F - 30.2 °F 70% 29.96 in 10.0 mi Calm Calm - N/A   Clear
3:36 AM 37.4 °F - 28.4 °F 70% 29.96 in 10.0 mi Calm Calm - N/A   Clear
3:56 AM 37.4 °F 34.9 °F 30.2 °F 75% 29.96 in 10.0 mi East 3.5 mph - N/A   Clear
4:16 AM 37.4 °F 33.8 °F 30.2 °F 75% 29.96 in 10.0 mi East 4.6 mph - N/A   Clear
4:36 AM 37.4 °F 33.8 °F 30.2 °F 75% 29.97 in 10.0 mi ENE 4.6 mph - N/A   Clear
4:56 AM 37.4 °F 33.8 °F 30.2 °F 75% 29.97 in 10.0 mi East 4.6 mph - N/A   Clear
5:16 AM 39.2 °F 35.0 °F 30.2 °F 70% 29.97 in 10.0 mi ENE 5.8 mph - N/A   Clear
5:36 AM 37.4 °F 32.1 °F 30.2 °F 75% 29.97 in 10.0 mi NNE 6.9 mph - N/A   Clear
5:56 AM 39.2 °F 35.0 °F 30.2 °F 70% 29.97 in 10.0 mi North 5.8 mph - N/A   Clear
6:16 AM 41.0 °F 37.1 °F 30.2 °F 65% 29.96 in 10.0 mi NNE 5.8 mph - N/A   Clear
6:36 AM 42.8 °F 39.3 °F 30.2 °F 61% 29.97 in 10.0 mi NE 5.8 mph - N/A   Clear
6:56 AM 44.6 °F 42.2 °F 30.2 °F 57% 29.97 in 10.0 mi NE 4.6 mph - N/A   Clear
7:16 AM 44.6 °F 42.2 °F 30.2 °F 57% 29.97 in 10.0 mi ENE 4.6 mph - N/A   Clear
7:36 AM 44.6 °F 43.1 °F 32.0 °F 61% 29.97 in 10.0 mi East 3.5 mph - N/A   Clear
7:56 AM 46.4 °F 43.5 °F 32.0 °F 57% 29.97 in 10.0 mi East 5.8 mph - N/A   Clear
8:16 AM 46.4 °F 44.3 °F 32.0 °F 57% 29.97 in 10.0 mi East 4.6 mph - N/A   Clear
8:36 AM 48.2 °F - 32.0 °F 54% 29.97 in 10.0 mi ESE 3.5 mph - N/A   Clear
8:56 AM 48.2 °F - 33.8 °F 58% 29.98 in 10.0 mi Calm Calm - N/A   Clear
9:16 AM 48.2 °F - 33.8 °F 58% 29.97 in 10.0 mi Calm Calm - N/A   Clear
9:36 AM 51.8 °F - 33.8 °F 50% 29.97 in 10.0 mi Calm Calm - N/A   Partly Cloudy
9:56 AM 51.8 °F - 33.8 °F 50% 29.97 in 10.0 mi Calm Calm - N/A   Clear
10:16 AM 53.6 °F - 33.8 °F 47% 29.97 in 10.0 mi East 5.8 mph - N/A   Clear
10:36 AM 53.6 °F - 33.8 °F 47% 29.96 in 10.0 mi East 5.8 mph - N/A   Clear
10:56 AM 55.4 °F - 33.8 °F 44% 29.96 in 10.0 mi East 4.6 mph - N/A   Clear
11:16 AM 57.2 °F - 32.0 °F 38% 29.96 in 10.0 mi ENE 4.6 mph - N/A   Partly Cloudy
11:36 AM 55.4 °F - 30.2 °F 38% 29.96 in 10.0 mi East 3.5 mph - N/A   Partly Cloudy
11:56 AM 57.2 °F - 30.2 °F 36% 29.96 in 10.0 mi Calm Calm - N/A   Clear
12:16 PM 59.0 °F - 30.2 °F 34% 29.95 in 10.0 mi Calm Calm - N/A   Clear
12:36 PM 60.8 °F - 28.4 °F 29% 29.95 in 10.0 mi Calm Calm - N/A   Clear
12:56 PM 62.6 °F - 30.2 °F 30% 29.95 in 10.0 mi SSW 4.6 mph - N/A   Clear
1:16 PM 62.6 °F - 30.2 °F 30% 29.95 in 10.0 mi South 5.8 mph - N/A   Clear
1:36 PM 62.6 °F - 30.2 °F 30% 29.94 in 10.0 mi South 6.9 mph - N/A   Clear
1:56 PM 64.4 °F - 30.2 °F 28% 29.94 in 10.0 mi South 6.9 mph - N/A   Clear
2:16 PM 64.4 °F - 30.2 °F 28% 29.93 in 10.0 mi South 3.5 mph - N/A   Clear
2:36 PM 64.4 °F - 32.0 °F 30% 29.93 in 10.0 mi SSW 8.1 mph - N/A   Clear
2:56 PM 64.4 °F - 32.0 °F 30% 29.93 in 10.0 mi SSW 8.1 mph - N/A   Clear
3:16 PM 64.4 °F - 30.2 °F 28% 29.93 in 10.0 mi SW 9.2 mph - N/A   Clear
3:36 PM 66.2 °F - 30.2 °F 26% 29.93 in 10.0 mi SSW 5.8 mph - N/A   Clear
3:56 PM 66.2 °F - 30.2 °F 26% 29.92 in 10.0 mi Calm Calm - N/A   Clear
4:16 PM 66.2 °F - 32.0 °F 28% 29.92 in 10.0 mi SSW 6.9 mph - N/A   Clear
4:36 PM 66.2 °F - 30.2 °F 26% 29.92 in 10.0 mi WNW 6.9 mph - N/A   Scattered Clouds
4:56 PM 66.2 °F - 30.2 °F 26% 29.91 in 10.0 mi West 6.9 mph - N/A   Partly Cloudy
5:16 PM 66.2 °F - 30.2 °F 26% 29.91 in 10.0 mi West 3.5 mph - N/A   Clear
5:36 PM 66.2 °F - 30.2 °F 26% 29.91 in 10.0 mi WSW 4.6 mph - N/A   Scattered Clouds
5:56 PM 66.2 °F - 30.2 °F 26% 29.91 in 10.0 mi West 9.2 mph - N/A   Partly Cloudy
6:16 PM 66.2 °F - 30.2 °F 26% 29.91 in 10.0 mi SW 4.6 mph - N/A   Clear
6:36 PM 66.2 °F - 30.2 °F 26% 29.91 in 10.0 mi WSW 5.8 mph - N/A   Clear
6:56 PM 66.2 °F - 30.2 °F 26% 29.91 in 10.0 mi WSW 8.1 mph - N/A   Partly Cloudy
7:16 PM 66.2 °F - 30.2 °F 26% 29.90 in 10.0 mi NW 5.8 mph - N/A   Partly Cloudy
7:36 PM 66.2 °F - 30.2 °F 26% 29.90 in 10.0 mi West 4.6 mph - N/A   Partly Cloudy
7:56 PM 66.2 °F - 30.2 °F 26% 29.90 in 10.0 mi WNW 6.9 mph - N/A   Partly Cloudy
8:16 PM 64.4 °F - 32.0 °F 30% 29.90 in 10.0 mi NNW 6.9 mph - N/A   Clear
8:36 PM 64.4 °F - 33.8 °F 32% 29.90 in 10.0 mi NNE 4.6 mph - N/A   Clear
8:56 PM 62.6 °F - 33.8 °F 34% 29.90 in 10.0 mi North 6.9 mph - N/A   Clear
9:16 PM 62.6 °F - 33.8 °F 34% 29.90 in 10.0 mi North 4.6 mph - N/A   Clear
9:36 PM 60.8 °F - 33.8 °F 36% 29.90 in 10.0 mi NNW 5.8 mph - N/A   Clear
9:56 PM 60.8 °F - 33.8 °F 36% 29.90 in 10.0 mi NNW 5.8 mph - N/A   Clear
10:16 PM 59.0 °F - 33.8 °F 39% 29.90 in 10.0 mi Calm Calm - N/A   Clear
10:36 PM 59.0 °F - 33.8 °F 39% 29.90 in 10.0 mi NW 3.5 mph - N/A   Clear
10:56 PM 57.2 °F - 35.6 °F 44% 29.90 in 10.0 mi Calm Calm - N/A   Clear
11:16 PM 55.4 °F - 33.8 °F 44% 29.91 in 10.0 mi Calm Calm - N/A   Clear
11:36 PM 55.4 °F - 33.8 °F 44% 29.91 in 10.0 mi WNW 3.5 mph - N/A   Clear
11:56 PM 51.8 °F - 33.8 °F 50% 29.91 in 10.0 mi Calm Calm - N/A   Clear